Satellite: AO-51
Catalog number: 28375
Epoch time:      05013.71077933
Element set:     157
Inclination:       98.2355 deg
RA of node:        82.2324 deg
Eccentricity:    0.0084145
Arg of perigee:   338.3490 deg
Mean anomaly:      21.4153 deg
Mean motion:   14.40426508 rev/day
Decay rate:       1.05e-06 rev/day^2
Epoch rev:            2837
Checksum:              281

/EX
SB KEPS @ AMSAT  $ORB05013.W
Orbital Elements  05013.WEATHER

HR AMSAT ORBITAL ELEMENTS FOR WEATHER SATELLITES
FROM WA5QGD FORT WORTH,TX January 13, 2005
SEND SUBSCRIBE/UNSUBSCRIBE TO majordomo@amsat.org ONLY
BID: ORB05013.W
TO ALL RADIO AMATEURS BT

Satellite: NOAA-10
Catalog number: 16969
Epoch time:      05013.25642468
Element set:     556
Inclination:       98.7610 deg
RA of node:        18.6588 deg
Eccentricity:    0.0011874
Arg of perigee:   221.5014 deg
Mean anomaly:     138.5271 deg
Mean motion:   14.27235791 rev/day
Decay rate:        9.2e-07 rev/day^2
Epoch rev:           95299
Checksum:              321

Satellite: NOAA-11
Catalog number: 19531
Epoch time:      05013.33985087
Element set:     412
Inclination:       98.8550 deg
RA of node:       101.7276 deg
Eccentricity:    0.0011566
Arg of perigee:    33.7871 deg
Mean anomaly:     326.4055 deg
Mean motion:   14.14747377 rev/day
Decay rate:        7.4e-07 rev/day^2
Epoch rev:           84103
Checksum:              295

Satellite: NOAA-12
Catalog number: 21263
Epoch time:      05013.82498722
Element set:     903
Inclination:       98.6882 deg
RA of node:         5.4994 deg
Eccentricity:    0.0013091
Arg of perigee:   154.8358 deg
Mean anomaly:     205.3938 deg
Mean motion:   14.25442461 rev/day
Decay rate:        6.0e-07 rev/day^2
Epoch rev:           71029
Checksum:              299

Satellite: MET-3/5
Catalog number: 21655
Epoch time:      05013.42673082
Element set:     717
Inclination:       82.5561 deg
RA of node:       267.9795 deg
Eccentricity:    0.0012269
Arg of perigee:   261.9054 deg
Mean anomaly:      98.0719 deg
Mean motion:   13.16999171 rev/day
Decay rate:        5.1e-07 rev/day^2
Epoch rev:           64494
Checksum:              327

Satellite: MET-2/21
Catalog number: 22782
Epoch time:      05013.07862441
Element set:     103
Inclination:       82.5476 deg
RA of node:        24.0233 deg
Eccentricity:    0.0022074
Arg of perigee:   195.1320 deg
Mean anomaly:     164.9183 deg
Mean motion:   13.83578235 rev/day
Decay rate:       -4.5e-07 rev/day^2
Epoch rev:           57412
Checksum:              270

Satellite: OKEAN-4
Catalog number: 23317
Epoch time:      05013.67789520
Element set:     523
Inclination:       82.5387 deg
RA of node:        41.4407 deg
Eccentricity:    0.0020877
Arg of perigee:   286.9283 deg
Mean anomaly:      72.9661 deg
Mean motion:   14.82029815 rev/day
Decay rate:       4.18e-06 rev/day^2
Epoch rev:           55302
Checksum:              307

Satellite: NOAA-14
Catalog number: 23455
Epoch time:      05013.84039922
Element set:     433
Inclination:       99.1138 deg
RA of node:        59.4876 deg
Eccentricity:    0.0009994
Arg of perigee:    76.7663 deg
Mean anomaly:     283.5094 deg
Mean motion:   14.13527748 rev/day
Decay rate:       1.35e-06 rev/day^2
Epoch rev:           51778
Checksum:              336

Satellite: SICH-1
Catalog number: 23657
Epoch time:      05013.72966595
Element set:     326
Inclination:       82.5286 deg
RA of node:       182.2135 deg
Eccentricity:    0.0022823
Arg of perigee:   271.2139 deg
Mean anomaly:      88.6432 deg
Mean motion:   14.81051124 rev/day
Decay rate:       3.55e-06 rev/day^2
Epoch rev:           50509
Checksum:              288

Satellite: NOAA-15
Catalog number: 25338
Epoch time:      05013.75259029
Element set:     878
Inclination:       98.5159 deg
RA of node:        26.7734 deg
Eccentricity:    0.0011475
Arg of perigee:    89.6049 deg
Mean anomaly:     270.6917 deg
Mean motion:   14.24481567 rev/day
Decay rate:        9.7e-07 rev/day^2
Epoch rev:           34677
Checksum:              346

Satellite: RESURS
Catalog number: 25394
Epoch time:      05013.49523527
Element set:     993
Inclination:       98.5600 deg
RA of node:        86.9787 deg
Eccentricity:    0.0000789
Arg of perigee:   212.5054 deg
Mean anomaly:     147.6077 deg
Mean motion:   14.24045317 rev/day
Decay rate:        3.5e-07 rev/day^2
Epoch rev:           33843
Checksum:              308

Satellite: FENGYUN1
Catalog number: 25730
Epoch time:      05012.64304493
Element set:     324
Inclination:       98.6042 deg
RA of node:        20.6639 deg
Eccentricity:    0.0014661
Arg of perigee:   180.5697 deg
Mean anomaly:     179.5469 deg
Mean motion:   14.11787465 rev/day
Decay rate:       2.29e-06 rev/day^2
Epoch rev:           29256
Checksum:              308

Satellite: OKEAN-0
Catalog number: 25860
Epoch time:      05012.76642598
Element set:     329
Inclination:       97.7738 deg
RA of node:        45.3613 deg
Eccentricity:    0.0001396
Arg of perigee:    55.3790 deg
Mean anomaly:     304.7550 deg
Mean motion:   14.73185888 rev/day
Decay rate:       2.30e-06 rev/day^2
Epoch rev:           29512
Checksum:              312

Satellite: NOAA-16
Catalog number: 26536
Epoch time:      05013.83749529
Element set:     183
Inclination:       98.9937 deg
RA of node:       331.5701 deg
Eccentricity:    0.0010950
Arg of perigee:   139.8710 deg
Mean anomaly:     220.3755 deg
Mean motion:   14.12198258 rev/day
Decay rate:       2.79e-06 rev/day^2
Epoch rev:           22227
Checksum:              314

